CAPE
114 257 919 1264 1327 1118 650 802 679 531 526 354 180 623 798 1380 994 1079 436 845 571 437 904 1518 3068 2701 2046 2225 2139 1541 1374 1409 1629 1886 2186 2013 1766 1800 1894 2048 2421 3006 2545 2091 2004 2302 2457 1913 2640
539 286 701 623 940 319 767 665 444 582 615 586 287 407 765 1364 1160 460 324 716 500 479 611 1021 2777 2892 2399 2255 2580 2224 1522 1502 1794 2012 2097 2008 1824 1758 1650 1689 1832 2036 2385 2699 2244 1914 1983 2587 2472
759 594 1173 1147 1114 531 619 309 595 616 486 389 330 513 802 1103 881 377 401 549 434 533 607 1852 2855 2966 2558 2538 2866 2626 2495 1770 1895 2179 2089 2000 1743 1675 1666 1736 1796 1727 1619 1839 2420 2237 2007 1864 2177
1003 1198 1174 1080 407 933 366 581 593 457 438 349 344 823 1181 925 735 634 377 463 389 501 865 2094 3008 2813 3037 3083 2790 2459 2413 2241 1944 2032 2082 1945 1730 1564 1598 1735 1847 1888 2014 1916 1532 2212 2127 1807 1768
1278 1162 1513 951 421 438 587 636 604 499 350 335 496 721 1150 935 728 381 436 506 369 541 1279 1478 2592 2893 2736 2542 2082 2101 2253 2043 2081 1860 1927 1762 1757 1655 1721 1615 1367 1271 1181 1207 1938 1579 1960 1239 1232
1103 774 661 459 317 259 440 630 682 413 420 382 414 974 992 970 716 328 388 646 325 875 646 1195 2258 2225 2248 2173 2109 2215 2083 1887 1658 1641 1302 1061 715 1113 1202 977 1283 1455 1492 1392 1324 1608 1534 1379 775
569 1066 393 179 305 391 245 366 430 217 374 451 290 1193 940 772 607 336 331 666 411 748 634 886 1133 1680 1884 2371 1901 1809 1839 1298 1232 814 625 338 750 1002 1152 1074 829 816 1012 1271 1426 1118 1301 1068 763
776 599 283 298 429 350 338 307 283 416 736 539 355 914 1298 907 656 404 349 439 741 938 932 1301 1145 1341 1784 1608 1978 1717 1659 1408 928 332 323 758 784 742 653 634 485 615 669 734 1225 850 1288 1200 1075
424 779 310 247 87 308 325 176 405 368 622 729 605 838 1385 883 662 475 339 303 779 1160 1327 1159 1042 1543 1324 1014 1542 1950 1748 1245 921 84 13 8 334 661 262 177 146 304 643 867 859 800 1525 1461 1163
497 341 95 77 164 88 180 324 255 491 713 817 1065 1172 1245 1019 783 627 464 318 377 973 1001 1493 1267 1133 453 358 1550 1858 1628 1420 544 7 2 0 33 431 23 180 325 490 565 802 635 1252 1703 1566 874
138 116 65 56 37 94 126 203 175 189 267 861 1470 1628 1437 1248 965 589 531 449 334 342 905 1048 790 1013 687 1666 1892 1620 1489 925 269 81 0 0 61 378 650 619 101 663 763 687 747 1334 1206 908 895
110 26 20 21 9 35 148 132 151 180 704 804 1722 1771 1679 1505 1124 634 686 524 550 384 318 531 830 1371 1471 1278 1363 1563 896 544 1326 483 182 26 18 0 1502 620 934 1281 572 1012 1265 363 509 1243 1798
50 35 0 0 4 19 17 144 386 672 764 769 1360 1755 1608 1541 1210 891 677 838 552 509 733 733 1485 1798 2088 2214 2076 2097 1027 1436 1606 1967 990 566 538 460 31 1040 1046 1024 1446 1291 736 921 1104 1605 1339
21 0 2 6 33 72 91 308 336 1168 1279 844 1387 1638 1525 1331 965 1103 718 678 606 701 831 1071 1505 2179 1429 1619 2102 1845 1985 1416 1932 1980 1882 1268 1221 569 128 195 243 651 1095 1725 1311 1820 2318 1314 1475
0 0 19 43 66 104 242 888 1044 1434 1645 1547 1476 1681 1272 1288 1400 483 1095 735 611 720 835 961 1416 1482 1633 1533 2076 2334 1719 1297 1531 2025 1450 1082 614 164 203 61 415 663 1528 1605 1874 1447 2137 1207 912
0 4 60 78 83 192 141 918 1200 1445 1466 1418 1512 1314 1353 993 1349 1066 662 355 599 1061 1379 1463 996 1292 1625 1642 2665 2115 1976 1169 1381 1784 2586 1340 474 469 327 21 481 932 1634 1832 1215 1929 1472 1603 1570
9 22 63 87 173 146 144 1124 1156 1244 1180 1386 1465 936 887 1120 1040 364 77 146 291 924 1080 1403 1307 1222 1833 1592 1952 1992 1722 1395 633 1726 2357 1542 382 588 197 55 351 753 1730 1396 1625 1397 1901 1312 1486
77 64 17 62 113 263 193 721 920 1053 1134 1140 1000 575 1169 1003 793 668 123 104 627 931 1344 1653 1657 1735 1667 1870 2372 2001 2199 1339 1153 2155 2250 1659 925 607 580 43 361 821 1179 1899 1280 2401 1807 1876 1259
19 3 56 72 73 113 108 265 476 1007 785 665 587 609 920 645 535 202 79 618 654 1514 1549 1659 1786 2093 2190 3172 2734 2957 2584 2201 2128 3034 1588 1581 1242 370 1134 221 511 661 1061 2270 2491 2070 917 1565 2169
27 35 50 43 39 74 291 607 631 771 509 461 482 659 634 131 160 439 607 931 887 1234 1572 1840 1774 2146 2575 3219 2960 3372 1922 1651 3099 2363 1625 1665 965 532 590 974 1328 706 1206 1947 2494 1886 1894 1608 2590
29 90 28 64 41 25 210 881 852 772 642 534 533 634 192 212 285 637 809 696 939 1402 1626 1928 1982 2020 2343 2416 2863 2234 2251 2163 1569 719 791 1543 925 302 633 1098 1710 1033 1268 1101 1840 2919 2015 1090 1891
101 63 0 3 5 70 151 135 157 676 730 559 640 583 581 370 404 513 550 656 844 1109 1187 1535 1909 2112 2533 2524 2195 2318 2282 2305 2565 1950 1027 1133 1163 825 1212 1220 1798 1983 1244 1866 2321 1833 2726 2423 2311
62 0 17 25 51 97 163 141 1 326 584 554 632 522 498 449 300 343 520 766 1125 1417 1567 1790 1948 2245 2211 2592 2589 2363 2312 2201 2356 2761 1482 2510 2453 1332 987 1427 1894 1857 1438 2138 2284 1994 2255 2018 1225
21 0 23 73 38 66 76 195 83 209 618 417 480 345 270 236 369 531 865 1019 1122 1458 1587 1970 2541 2552 2748 3170 3006 2813 2880 2271 2220 2103 2453 2599 3052 2754 2025 1544 1781 2115 2089 2426 1942 2007 1905 2859 2081
0 32 107 165 159 58 143 155 60 266 406 296 334 261 277 311 542 717 992 1296 1524 1694 1801 2147 2875 3304 3364 3309 3201 3613 3838 2425 2399 2994 3024 2535 3358 2793 2338 2162 1908 1669 1797 1700 2061 2065 2238 2364 1814
44 71 264 62 87 248 443 309 724 444 318 231 299 219 293 417 704 892 1111 1319 1520 1663 1871 2008 2533 3197 3442 3479 3435 3121 3290 3426 3416 3089 1832 2115 1608 1840 2174 1865 1667 1760 2396 2072 2083 1811 1846 2255 1698
130 230 8 30 174 139 11 763 631 472 295 351 297 299 423 594 703 886 1092 1322 1505 1494 1511 1639 2283 2884 3139 3169 3510 3584 3567 3392 3140 2747 2673 2094 1867 1981 2584 2425 2206 2125 2385 2354 2829 1649 1672 2191 1847
37 117 88 145 197 237 126 512 1260 747 433 450 283 382 527 665 784 914 1158 1318 1423 1525 1734 2021 1922 2566 2778 2886 3054 3194 3158 3320 2912 2751 3066 2953 2363 1841 2074 2095 2501 1966 1925 2128 2768 2310 2606 2842 1706
35 51 106 120 118 152 18 71 250 963 607 566 400 318 454 597 761 1082 1211 1587 2000 2214 2131 2153 2160 2588 3049 3099 3776 3443 3242 2966 2935 2652 2698 2849 2883 2538 2177 2713 2639 2611 2373 2118 2746 2911 2659 2676 2746
128 169 48 151 190 396 112 124 47 806 723 611 505 468 562 857 1273 1867 2384 2718 2862 3070 3239 3178 2127 714 185 121 228 533 2158 2760 2277 2244 1947 1667 2094 2680 2877 2595 2835 2508 2487 2411 2476 1997 1796 2469 1886
CIN
-186 -184 -69 -49 -2 -4 -1 -1 -0 -0 -1 -0 -1 -1 -1 -0 -5 -0 -8 -0 -0 -2 -8 -0 -0 -0 -0 -0 -0 -0 -5 -2 -0 -0 -0 -0 -0 -0 -0 -0 -0 -0 -0 -0 -0 -0 -0 -0 -0
-53 -93 -68 -24 -4 -18 -0 -0 -0 -0 -1 -1 -4 -0 -1 -0 -7 -22 -18 -0 -1 -0 -1 -0 -0 -0 -0 -0 -0 -0 -3 -0 -0 -0 -0 -0 -0 -0 -2 -0 -0 -0 -0 -0 -0 -0 -0 -0 -0
-69 -75 -0 -1 -2 -6 -1 -0 -0 -0 -0 -0 -1 -1 -0 -0 -0 -11 -11 -1 -5 -0 -0 -0 -0 -0 -0 -0 -0 -0 -0 -0 -0 -0 -0 -0 -0 -0 -0 -0 -0 -0 -0 -0 -0 -0 -0 -0 -0
-23 -15 -10 -37 -0 -0 -0 -0 -0 -0 -0 -0 -3 -1 -11 -10 -0 -0 -15 -0 -3 -3 -0 -0 -0 -0 -0 -0 -0 -0 -0 -0 -1 -1 -0 -0 -0 -0 -0 -0 -0 -0 -0 -0 -0 -0 -2 -1 -0
-18 -1 -3 -0 -1 -0 -0 -0 -0 -0 -0 -0 -1 -0 -2 -25 -1 -27 -14 -0 -1 -0 -2 -0 -0 -0 -0 -0 -0 -1 -2 -6 -3 -4 -2 -2 -0 -0 -0 -0 -0 -0 -1 -1 -0 -2 -0 -4 -6
-2 -55 -28 -1 -0 -7 -0 -0 -3 -3 -0 -0 -0 -0 -5 -12 -11 -16 -1 -0 -0 -0 -0 -0 -0 -0 -0 -0 -0 -0 -1 -3 -3 -1 -1 -1 -8 -5 -1 -3 -0 -0 -0 -0 -2 -2 -0 -5 -12
-5 -5 -17 -5 -0 -0 -0 -0 -0 -1 -0 -1 -1 -1 -1 -1 -0 -5 -0 -1 -5 -0 -4 -0 -0 -0 -0 -0 -0 -0 -0 -1 -1 -1 -0 -1 -3 -3 -2 -1 -5 -3 -0 -0 -0 -3 -2 -2 -12
-2 -0 -1 -2 -3 -0 -1 -0 -0 -0 -1 -2 -0 -0 -2 -0 -0 -0 -0 -0 -0 -5 -0 -1 -0 -0 -0 -0 -0 -0 -0 -0 -1 -48 -20 -6 -2 -6 -1 -10 -9 -10 -11 -16 -2 -4 -2 -1 -2
-29 -5 -9 -5 -2 -0 -0 -16 -0 -1 -0 -0 -1 -0 -1 -19 -0 -0 -0 -0 -0 -12 -0 -0 -0 -1 -0 -0 -0 -0 -0 -0 -15 -70 -2 -36 -25 -12 -11 -24 -28 -27 -19 -16 -17 -8 -2 -1 -1
-1 -0 -4 -2 -4 -0 -31 -5 -6 -1 -0 -1 -14 -23 -10 -14 -0 -0 -0 -0 -0 -3 -1 -0 -3 -0 -2 -1 -1 -0 -10 -0 -14 -60 -11 -0 -22 -9 -3 -21 -24 -24 -26 -25 -28 -13 -5 -5 -1
-3 -3 -0 -1 -2 -2 -0 -13 -20 -6 -178 -9 -8 -18 -20 -0 -0 -0 -0 -0 -0 -0 -0 -4 -0 -4 -12 -11 -0 -0 -7 -0 -4 -58 -0 -19 -23 -7 -0 -0 -6 -4 -28 -1 -22 -14 -11 -29 -9
-1 -11 -1 -1 -3 -2 -0 -0 -29 -14 -55 -2 -9 -16 -19 -4 -0 -0 -0 -1 -4 -4 -1 -0 -4 -3 -6 -0 -0 -0 -0 -0 -0 -0 -24 -44 -73 -5 -1 -16 -29 -17 -2 -24 -8 -0 -0 -2 -4
-0 -0 -0 -0 -3 -3 -2 -4 -4 -10 -26 -13 -0 -0 -8 -6 -0 -5 -1 -0 -9 -3 -7 -3 -9 -1 -10 -23 -27 -4 -0 -0 -1 -0 -0 -2 -6 -0 -65 -0 -0 -11 -6 -22 -0 -3 -4 -15 -1
-1 -0 -0 -1 -3 -2 -1 -14 -7 -15 -28 -10 -3 -0 -0 -0 -0 -1 -1 -14 -5 -4 -0 -3 -7 -3 -1 -0 -0 -2 -0 -0 -3 -2 -0 -3 -6 -17 -35 -6 -20 -22 -28 -6 -1 -10 -9 -31 -19
-0 -0 -0 -1 -3 -2 -10 -2 -14 -33 -11 -2 -0 -0 -1 -0 -28 -43 -97 -5 -13 -1 -5 -0 -0 -2 -4 -0 -0 -0 -0 -31 -33 -2 -0 -0 -4 -47 -26 -54 -0 -13 -9 -3 -10 -0 -6 -0 -1
-0 -0 -2 -3 -5 -25 -18 -0 -35 -15 -0 -0 -0 -0 -0 -5 -0 -7 -53 -19 -98 -0 -6 -0 -0 -1 -0 -0 -0 -0 -0 -0 -3 -1 -0 -0 -25 -9 -20 -101 -0 -5 -2 -20 -0 -16 -76 -7 -0
-0 -13 -47 -0 -4 -3 -4 -1 -38 -23 -0 -0 -0 -0 -1 -2 -12 -24 -51 -142 -89 -21 -0 -0 -0 -0 -6 -3 -0 -0 -0 -0 -3 -1 -2 -0 -32 -18 -64 -100 -36 -2 -5 -0 -0 -19 -57 -9 -0
-0 -3 -0 -1 -0 -0 -1 -5 -27 -16 -0 -0 -0 -1 -22 -3 -15 -3 -51 -162 -41 -19 -0 -0 -0 -0 -1 -0 -0 -0 -0 -0 -0 -0 -0 -0 -3 -17 -15 -130 -43 -1 -0 -2 -0 -20 -15 -0 -0
-1 -3 -0 -0 -7 -0 -8 -7 -22 -4 -9 -3 -0 -0 -0 -0 -10 -24 -61 -11 -27 -3 -0 -0 -0 -0 -0 -0 -0 -0 -0 -0 -0 -0 -0 -0 -0 -50 -3 -43 -38 -7 -0 -5 -1 -7 -29 -0 -13
-0 -0 -0 -2 -5 -6 -2 -4 -13 -9 -8 -0 -0 -2 -0 -9 -44 -40 -9 -3 -5 -0 -0 -0 -0 -0 -0 -0 -0 -0 -0 -0 -0 -2 -7 -0 -13 -46 -19 -0 -1 -15 -0 -0 -2 -0 -13 -16 -4
-0 -0 -3 -0 -0 -3 -1 -6 -3 -9 -14 -11 -0 -0 -35 -5 -6 -0 -0 -0 -1 -0 -0 -0 -0 -0 -0 -0 -0 -0 -0 -1 -24 -27 -9 -2 -10 -54 -11 -5 -0 -4 -0 -0 -14 -4 -0 -3 -31
-0 -1 -0 -0 -3 -1 -11 -68 -54 -0 -3 -6 -0 -0 -0 -2 -0 -0 -0 -0 -0 -0 -0 -0 -0 -0 -0 -0 -0 -0 -0 -3 -2 -9 -5 -4 -4 -15 -1 -0 -0 -0 -0 -8 -13 -0 -0 -0 -11
-0 -0 -0 -0 -0 -0 -4 -6 -0 -1 -0 -3 -0 -0 -0 -0 -0 -0 -0 -1 -0 -0 -0 -0 -3 -0 -0 -0 -1 -2 -1 -9 -3 -1 -8 -1 -0 -3 -0 -0 -0 -0 -0 -0 -0 -2 -1 -1 -1
-1 -0 -15 -0 -0 -1 -9 -0 -68 -42 -0 -19 -4 -6 -1 -2 -0 -0 -0 -0 -0 -0 -1 -0 -2 -2 -0 -0 -2 -7 -0 -1 -5 -3 -0 -1 -0 -0 -0 -0 -0 -0 -0 -0 -0 -0 -0 -0 -0
-0 -3 -6 -1 -0 -4 -13 -2 -250 -19 -15 -19 -19 -29 -17 -1 -0 -0 -0 -0 -0 -1 -1 -1 -0 -0 -0 -0 -0 -0 -0 -0 -1 -2 -3 -6 -0 -0 -2 -0 -1 -0 -0 -0 -0 -0 -0 -0 -0
-2 -0 -4 -19 -39 -33 -1 -0 -3 -2 -14 -14 -21 -44 -27 -4 -0 -0 -0 -0 -0 -1 -0 -0 -1 -0 -0 -0 -0 -0 -0 -0 -5 -3 -1 -7 -24 -6 -4 -0 -0 -0 -1 -0 -0 -0 -0 -0 -0
-0 -0 -36 -40 -0 -1 -156 -4 -3 -15 -11 -15 -4 -36 -19 -4 -0 -0 -0 -0 -0 -9 -13 -19 -18 -2 -0 -0 -0 -0 -0 -0 -1 -4 -0 -0 -0 -9 -1 -1 -2 -0 -0 -1 -0 -0 -0 -1 -0
-18 -0 -1 -7 -3 -0 -59 -0 -0 -21 -26 -17 -2 -9 -3 -0 -0 -0 -1 -3 -3 -0 -0 -13 -47 -11 -0 -0 -0 -0 -1 -0 -2 -4 -0 -0 -0 -1 -1 -0 -0 -1 -0 -0 -0 -0 -0 -0 -0
-27 -26 -0 -3 -3 -12 -17 -30 -15 -17 -38 -21 -2 -10 -10 -0 -0 -0 -0 -0 -0 -0 -1 -0 -34 -6 -0 -0 -6 -1 -1 -0 -0 -0 -0 -0 -0 -0 -0 -0 -0 -0 -1 -0 -0 -0 -0 -0 -0
-7 -1 -2 -0 -0 -74 -54 -59 -362 -24 -20 -18 -1 -1 -0 -1 -0 -1 -0 -1 -1 -0 -0 -0 -44 -107 -142 -157 -126 -86 -2 -0 -0 -0 -0 -2 -0 -2 -5 -0 -0 -4 -2 -0 -1 -0 -0 -0 -0
Wind_Speed
18 17 12 11 13 13 15 8 6 6 11 10 13 15 11 20 13 13 20 17 19 18 16 14 11 14 15 16 15 13 14 13 9 9 10 11 11 10 12 10 9 11 11 12 12 11 16 17 16
19 10 9 9 9 15 10 8 14 19 18 12 11 7 18 21 17 20 16 21 20 18 16 15 12 13 14 13 13 13 14 13 11 10 11 11 10 10 12 11 10 10 9 10 12 13 14 17 17
20 12 13 5 7 5 14 9 15 16 11 12 13 19 18 15 11 15 20 22 21 17 16 17 12 13 13 14 13 13 13 16 13 10 8 9 10 9 11 10 9 9 9 8 11 13 20 17 14
12 14 15 5 10 17 13 16 7 8 9 12 8 17 15 14 12 13 19 21 20 17 18 16 14 12 13 13 13 14 13 13 12 9 10 9 10 10 9 8 5 4 6 10 11 14 13 12 13
16 14 14 3 12 8 12 7 8 8 15 15 18 22 18 10 9 22 20 20 20 18 20 17 13 14 12 12 12 12 11 11 13 11 8 5 7 9 7 5 3 3 6 9 11 13 10 11 12
14 10 9 4 5 2 4 8 8 2 3 5 9 20 16 13 17 20 19 21 18 19 19 18 14 14 14 12 11 12 11 12 14 11 8 7 3 2 2 2 2 4 7 9 9 11 11 12 11
15 8 14 5 11 9 6 3 3 12 7 14 6 26 18 18 19 19 17 21 22 20 14 16 15 12 13 13 13 13 16 14 14 17 18 7 6 6 3 1 1 2 7 8 8 13 14 14 16
13 9 1 4 2 15 9 8 7 6 21 14 5 18 14 21 19 20 17 17 19 22 14 11 12 13 10 11 13 15 13 11 21 23 20 20 18 8 3 4 3 3 5 7 10 14 13 14 14
11 15 5 19 nan 15 11 7 10 10 20 13 13 17 28 25 21 21 18 19 24 20 18 13 11 10 10 8 10 11 13 23 18 nan nan nan 11 8 3 11 8 8 8 9 9 12 15 15 19
15 12 nan nan 11 nan 8 6 8 8 20 21 20 18 27 26 21 23 22 17 18 25 14 15 11 15 11 7 12 11 12 17 9 nan nan nan nan 4 nan 7 7 11 10 12 13 14 18 20 15
10 21 nan nan nan nan 17 5 6 7 29 6 26 22 24 23 20 19 18 18 14 15 16 9 13 9 8 8 8 7 11 13 13 nan nan nan nan 6 3 5 5 4 9 9 12 14 17 15 18
8 nan nan nan nan nan 8 11 7 7 22 12 32 27 24 22 18 17 18 15 19 19 9 14 14 8 5 8 8 9 10 10 6 12 16 nan nan nan 4 3 1 6 1 9 13 9 10 10 9
nan nan nan nan nan nan nan 11 10 10 11 8 28 28 23 21 22 22 20 23 18 16 13 8 13 8 5 3 12 9 10 10 11 9 14 13 11 11 nan 6 6 5 2 8 6 5 10 11 12
nan nan nan nan nan nan nan 10 4 16 11 17 25 29 27 25 23 26 24 26 21 13 10 15 18 12 6 5 11 7 10 7 6 10 11 13 10 9 9 10 9 6 1 7 8 6 6 6 9
nan nan nan nan nan 13 11 14 14 12 14 21 25 30 30 29 43 15 29 32 27 17 14 10 18 17 8 0 7 9 9 12 9 14 14 17 16 13 3 nan 11 7 7 4 3 4 6 6 6
nan nan nan nan nan 14 2 17 14 15 20 24 28 31 28 24 25 44 37 36 34 20 10 11 8 15 13 7 5 8 10 9 13 11 13 18 15 13 8 nan 3 9 6 2 5 6 4 5 8
nan nan nan nan 16 10 3 22 16 16 21 24 28 30 30 26 22 30 nan 24 10 20 3 6 4 7 11 7 8 7 10 9 13 14 14 18 18 14 9 nan 5 5 5 7 8 6 4 8 8
nan nan nan nan 22 5 12 18 19 20 21 28 28 27 33 22 25 30 22 11 10 12 3 8 7 4 11 9 7 7 10 9 10 13 15 17 15 14 7 nan 4 5 5 6 4 11 7 7 4
nan nan nan nan nan 6 14 18 21 24 23 21 20 20 22 20 25 19 nan 2 8 6 9 11 11 9 9 5 6 8 9 9 9 10 13 18 16 10 4 3 6 4 3 3 0 2 11 9 4
nan nan nan nan nan nan 16 18 18 23 22 18 26 19 25 17 11 2 4 7 7 6 8 7 7 8 7 6 5 5 7 9 12 10 8 9 5 3 4 4 6 1 7 5 4 5 5 5 3
nan nan nan nan nan nan 14 17 2 17 22 20 21 18 21 21 24 21 16 13 4 6 6 8 7 8 9 11 8 3 4 3 15 16 7 7 8 4 5 8 7 5 4 3 7 5 8 6 9
11 nan nan nan nan nan 14 13 18 19 22 17 17 16 18 13 13 15 12 9 6 6 7 9 9 8 8 16 8 6 7 11 10 13 13 16 20 9 5 8 11 2 4 3 6 5 3 1 4
nan nan nan nan nan nan 12 7 nan 18 17 19 20 17 16 12 14 11 11 13 12 10 8 6 6 7 6 8 8 5 8 13 14 20 17 20 16 19 17 12 8 3 5 4 3 6 4 3 2
nan nan nan nan nan nan nan 16 nan 27 17 17 19 20 17 15 12 6 6 3 3 2 4 4 7 10 11 10 8 8 7 10 8 10 14 14 13 11 11 9 6 5 5 4 2 1 2 2 4
nan nan 7 10 3 nan 9 9 nan 26 17 17 18 19 19 15 11 8 7 4 4 3 6 4 10 11 12 13 11 7 8 9 6 7 5 6 5 6 7 8 7 5 5 4 4 2 2 5 6
nan nan 34 nan nan 26 18 7 17 27 20 21 17 18 19 17 14 11 8 6 6 5 9 11 7 9 10 10 9 7 7 3 7 7 2 9 6 4 9 5 6 5 4 6 7 6 5 7 11
9 3 nan nan 9 16 nan 4 23 27 23 11 18 16 17 16 14 12 10 9 8 8 7 5 5 4 4 7 6 6 5 6 5 3 2 7 3 6 8 6 7 7 6 5 7 8 8 5 12
nan 17 nan 11 15 6 21 14 28 20 13 11 19 17 15 14 14 13 12 11 11 13 13 11 8 6 2 2 4 6 8 7 5 2 1 2 3 5 4 7 2 4 8 10 7 5 12 7 8
nan nan 11 11 22 23 nan nan 39 12 15 17 17 14 15 14 12 10 11 12 11 8 9 10 10 7 7 11 12 10 6 5 6 6 6 5 2 4 6 5 4 8 7 8 10 9 5 11 12
11 3 nan 6 14 24 6 24 nan 13 22 23 21 17 13 11 9 11 8 9 13 16 16 14 16 17 15 13 14 13 13 12 8 3 7 6 5 5 4 4 5 7 9 12 12 12 10 13 10
Wind_Direction
68 64 100 101 106 95 243 231 279 261 238 231 220 217 231 214 212 244 308 308 320 310 306 322 319 315 317 321 321 327 331 332 321 306 294 299 302 296 294 288 288 292 305 304 304 304 307 304 298
91 100 71 104 111 180 240 266 248 216 240 247 259 255 247 232 231 285 295 310 316 315 329 317 318 310 314 315 315 318 322 326 315 307 291 289 292 295 295 295 293 291 295 308 312 317 307 297 283
77 72 63 100 164 97 265 248 255 262 185 212 243 234 224 244 252 294 298 312 307 316 317 293 321 308 308 313 309 310 311 318 310 298 296 290 289 293 289 292 296 302 311 323 325 334 328 333 322
81 39 58 113 260 203 243 241 240 239 232 215 218 250 259 228 292 272 316 316 305 321 296 304 314 312 313 313 315 313 305 315 319 302 303 286 284 286 299 297 291 309 326 339 345 360 19 18 26
65 78 101 73 254 232 207 227 194 223 226 231 220 252 252 252 263 297 319 319 310 304 298 315 317 315 312 298 306 306 290 283 289 284 286 271 300 289 305 300 314 356 4 13 12 13 40 21 38
108 67 101 18 272 286 252 235 173 228 216 266 256 252 248 280 292 313 325 310 309 292 307 308 315 318 314 302 299 301 298 283 273 273 246 205 229 287 315 331 27 37 48 40 41 52 57 27 14
98 125 316 299 306 286 264 255 220 253 196 236 215 255 264 288 299 307 316 304 330 302 301 318 325 319 325 315 315 317 305 289 279 249 228 190 183 194 126 302 17 93 86 55 49 59 43 45 43
117 94 244 340 13 286 269 284 213 167 259 260 187 273 290 282 302 300 298 301 309 301 302 306 317 326 340 340 334 334 330 314 284 268 240 206 174 163 162 73 85 141 103 92 74 56 36 38 41
112 96 229 234 nan 275 266 274 266 206 262 249 247 237 293 299 307 302 302 299 298 293 308 309 313 312 344 334 323 332 323 327 326 nan nan nan 164 154 146 145 116 111 109 89 74 55 32 34 43
125 231 nan nan 232 nan 280 131 295 27 317 303 280 274 303 312 313 307 303 303 311 302 315 317 334 339 325 338 309 325 306 320 326 nan nan nan nan 139 nan 81 76 88 80 74 56 42 36 38 40
164 220 nan nan nan nan 255 270 196 144 216 312 302 306 311 320 324 316 312 299 301 311 310 333 325 302 310 261 278 298 291 358 4 nan nan nan nan 183 174 193 130 92 58 78 47 38 44 11 65
83 nan nan nan nan nan 211 223 244 188 315 245 301 316 322 325 322 306 280 267 246 278 293 324 300 302 276 293 300 302 323 353 347 14 10 nan nan nan 326 200 301 125 166 133 43 60 47 49 40
nan nan nan nan nan nan nan 251 250 241 220 267 293 310 317 317 316 303 309 294 277 267 265 289 285 314 274 283 259 277 327 326 344 343 358 355 359 319 nan 250 209 169 261 70 86 60 53 37 45
nan nan nan nan nan nan nan 263 305 258 279 313 312 317 324 325 319 294 299 293 280 268 289 275 305 314 345 334 288 280 274 296 297 334 343 350 325 307 275 230 190 176 169 172 110 66 36 66 43
nan nan nan nan nan 225 268 292 266 283 302 309 324 308 320 337 287 243 275 269 241 264 251 302 313 310 318 324 290 263 280 294 314 307 325 336 340 322 25 nan 147 180 171 155 142 88 45 74 72
nan nan nan nan nan 252 35 294 300 308 317 318 315 326 326 312 308 286 255 228 210 236 236 284 328 316 322 342 302 255 262 273 280 293 317 323 326 347 323 nan 187 165 171 145 177 123 232 120 92
nan nan nan nan 236 254 328 294 300 319 317 316 319 329 334 322 276 269 nan 251 239 150 200 255 292 289 298 306 277 271 283 293 302 302 309 325 324 309 305 nan 154 120 167 169 163 143 2 79 95
nan nan nan nan 258 258 284 283 309 320 321 326 337 334 317 316 286 286 292 313 35 84 347 329 312 280 307 300 309 287 270 284 279 302 306 323 318 306 285 nan 197 168 158 196 163 166 126 77 108
nan nan nan nan nan 271 273 299 314 314 316 321 321 312 315 305 293 269 nan 43 36 317 323 333 324 324 316 321 314 288 289 294 291 294 309 313 309 285 281 240 266 154 160 353 267 325 93 94 46
nan nan nan nan nan nan 314 313 318 325 306 314 307 322 331 325 316 34 59 19 41 355 329 301 315 340 331 310 315 305 281 272 272 277 313 297 333 265 255 203 209 244 189 292 342 6 104 61 288
nan nan nan nan nan nan 321 288 226 326 309 311 314 321 349 3 24 40 49 59 334 327 335 341 343 347 351 356 290 280 303 276 256 250 311 303 314 30 97 193 177 175 128 4 359 349 137 196 171
112 nan nan nan nan nan 60 317 27 352 311 337 334 341 356 6 348 8 12 4 351 322 344 356 10 11 6 9 37 39 342 312 350 37 48 42 27 86 96 115 120 141 129 93 348 13 86 130 336
nan nan nan nan nan nan 321 205 nan 347 334 341 347 349 348 357 343 356 2 15 9 19 21 16 32 34 43 41 68 334 4 355 17 19 53 58 47 49 68 94 111 107 81 57 90 237 301 275 43
nan nan nan nan nan nan nan 57 nan 118 313 334 342 350 334 340 330 338 299 331 334 42 87 5 26 45 48 41 36 24 39 13 4 23 17 42 50 53 40 48 44 24 53 40 359 255 245 203 224
nan nan 195 155 52 nan 45 62 nan 68 325 328 342 344 345 346 338 338 343 357 348 35 89 51 36 45 48 51 53 29 40 37 35 5 19 30 30 39 44 16 1 3 21 32 36 345 342 335 326
nan nan 257 nan nan 237 74 295 332 326 298 312 334 348 346 346 350 355 356 14 44 55 84 91 37 51 47 59 62 71 61 55 34 41 37 359 10 13 318 359 353 11 338 352 347 337 339 339 325
106 156 nan nan 95 324 nan 223 302 315 307 301 320 337 347 352 351 349 346 360 0 8 16 61 72 62 50 22 24 26 40 34 133 164 22 356 340 337 346 340 347 348 343 333 346 342 337 332 317
nan 159 nan 26 350 157 252 113 289 343 341 336 326 337 342 352 346 342 349 356 7 9 3 0 357 15 348 324 338 335 323 354 358 53 67 191 222 334 315 345 357 356 345 339 335 342 324 330 308
nan nan 128 169 243 188 nan nan 133 359 359 340 312 318 334 334 346 337 352 344 7 4 324 334 337 330 304 263 258 261 280 315 4 283 296 305 334 316 331 345 17 353 356 355 342 348 3 343 334
118 248 nan 178 271 280 124 311 nan 34 342 347 341 302 318 314 317 321 333 349 348 342 319 305 301 302 293 287 282 282 283 297 289 308 236 303 273 301 333 344 322 327 345 342 337 345 343 342 342